SCP
0 0 0 0 0 0 0 0 0 0 0 0 0 0 0 0 0 0 0 0 0 0
0 0 0 0 0 0 0 0 0 0 0 0 0 0 0 0 0 0 0 0 0 0
0 0 0 0 0 0 0 0 0 0 0 0 0 0 0 0 0 0 0 0 0 0
0 0 0 0 0 0 0 0 0 0 0 0 0 0 0 0 0 0 0 0 0 0
0 0 0 0 0 0 0 0 0 0 0 0 0 0 0 0 0 0 0 0 0 0
0 0 0 0 0 0 0 0 0 0 0 0 0 0 0 0 0 0 0 0 0 0
0 0 0 0 0 0 0 0 0 0 0 0 0 0 0 0 0 0 0 0 0 0
0 0 0 0 0 0 0 0 0 0 0 0 0 0 0 0 0 0 0 0 0 0
0 0 0 0 0 0 0 0 0 0 0 0 0 0 0 0 0 0 0 0 0 0
0 0 0 0 0 0 0 0 0 0 0 0 0 0 0 0 0 0 0 0 0 0
0 0 0 0 0 0 0 0 0 0 0 0 0 0 0 0 0 0 0 0 0 0
0 0 0 0 0 0 0 0 0 0 0 0 0 0 0 0 0 0 0 0 0 0
0 0 0 0 0 0 0 0 0 0 0 0 0 0 0 0 0 0 0 0 0 0
0 0 0 0 0 0 0 0 0 0 0 0 0 0 0 0 0 0 0 0 0 0
Wind_Speed_500mb
17 15 13 14 14 16 17 20 23 26 29 32 35 39 44 50 56 64 73 78 81 82
17 14 13 13 15 18 21 24 26 30 32 35 39 43 48 52 55 59 63 67 72 76
14 15 16 18 21 24 27 30 33 36 38 40 42 46 49 53 54 60 64 68 71 75
14 16 19 22 25 28 31 34 38 40 44 47 48 50 54 56 59 62 65 66 70 74
18 19 21 24 28 32 36 40 45 48 51 53 55 57 60 64 66 70 72 74 75 77
17 21 25 31 36 42 47 51 56 60 62 63 64 65 66 68 71 72 73 75 78 81
22 26 30 36 43 49 54 58 60 61 63 64 65 65 67 70 72 74 75 75 77 80
26 35 40 46 52 58 61 62 64 67 66 67 69 70 74 77 81 83 85 83 82 83
39 45 52 57 61 61 63 65 68 71 75 77 76 76 77 81 87 87 87 89 87 85
48 53 56 58 60 63 67 71 75 78 82 85 85 84 85 85 90 93 93 91 91 91
52 54 57 60 63 67 72 77 81 83 86 89 89 87 88 90 91 94 94 92 90 90
51 54 58 63 67 70 75 77 80 82 86 89 89 84 83 86 90 94 94 92 89 86
52 58 64 69 72 75 77 81 83 84 80 79 82 78 76 79 83 87 88 87 84 79
55 63 68 75 76 78 79 81 83 85 84 85 81 77 70 66 68 71 77 78 79 73
Wind_Direction_500mb
84 71 53 35 18 0 348 337 327 321 315 310 303 297 292 288 286 282 280 283 284 284
82 67 47 28 11 356 346 338 332 328 323 319 315 311 307 305 302 297 295 292 291 290
56 34 17 2 354 348 341 335 332 330 327 324 322 319 316 313 310 306 304 302 299 296
28 13 0 352 347 342 338 334 332 330 328 325 323 320 317 315 313 311 309 308 305 303
14 6 357 351 345 339 336 333 329 325 323 322 320 318 316 313 312 310 309 309 307 305
2 353 346 342 336 332 328 325 323 321 319 318 318 317 315 313 312 310 308 308 307 306
343 338 332 328 325 323 321 318 316 314 314 314 313 313 312 310 308 307 307 306 306 305
329 328 326 325 323 321 320 320 319 319 318 318 317 318 315 312 310 309 307 306 305 304
326 326 324 323 321 321 320 319 318 317 317 316 315 315 314 313 311 310 309 309 308 305
323 322 321 320 319 320 318 317 317 316 315 314 314 315 314 313 310 310 311 311 309 306
321 321 320 320 320 320 318 317 316 315 313 311 311 312 312 311 311 310 311 310 309 306
319 318 318 317 317 316 313 313 312 313 313 311 310 309 308 308 309 309 310 310 308 307
318 317 316 314 312 311 310 310 311 311 311 311 310 308 308 307 309 310 310 309 308 308
316 314 311 308 308 309 310 309 309 310 312 313 313 314 313 313 313 312 310 310 311 314
Wind_Speed_850mb
17 15 13 14 14 16 17 20 23 26 29 32 35 39 44 50 56 64 73 78 81 82
17 14 13 13 15 18 21 24 26 30 32 35 39 43 48 52 55 59 63 67 72 76
14 15 16 18 21 24 27 30 33 36 38 40 42 46 49 53 54 60 64 68 71 75
14 16 19 22 25 28 31 34 38 40 44 47 48 50 54 56 59 62 65 66 70 74
18 19 21 24 28 32 36 40 45 48 51 53 55 57 60 64 66 70 72 74 75 77
17 21 25 31 36 42 47 51 56 60 62 63 64 65 66 68 71 72 73 75 78 81
22 26 30 36 43 49 54 58 60 61 63 64 65 65 67 70 72 74 75 75 77 80
26 35 40 46 52 58 61 62 64 67 66 67 69 70 74 77 81 83 85 83 82 83
39 45 52 57 61 61 63 65 68 71 75 77 76 76 77 81 87 87 87 89 87 85
48 53 56 58 60 63 67 71 75 78 82 85 85 84 85 85 90 93 93 91 91 91
52 54 57 60 63 67 72 77 81 83 86 89 89 87 88 90 91 94 94 92 90 90
51 54 58 63 67 70 75 77 80 82 86 89 89 84 83 86 90 94 94 92 89 86
52 58 64 69 72 75 77 81 83 84 80 79 82 78 76 79 83 87 88 87 84 79
55 63 68 75 76 78 79 81 83 85 84 85 81 77 70 66 68 71 77 78 79 73
Wind_Direction_850mb
84 71 53 35 18 0 348 337 327 321 315 310 303 297 292 288 286 282 280 283 284 284
82 67 47 28 11 356 346 338 332 328 323 319 315 311 307 305 302 297 295 292 291 290
56 34 17 2 354 348 341 335 332 330 327 324 322 319 316 313 310 306 304 302 299 296
28 13 0 352 347 342 338 334 332 330 328 325 323 320 317 315 313 311 309 308 305 303
14 6 357 351 345 339 336 333 329 325 323 322 320 318 316 313 312 310 309 309 307 305
2 353 346 342 336 332 328 325 323 321 319 318 318 317 315 313 312 310 308 308 307 306
343 338 332 328 325 323 321 318 316 314 314 314 313 313 312 310 308 307 307 306 306 305
329 328 326 325 323 321 320 320 319 319 318 318 317 318 315 312 310 309 307 306 305 304
326 326 324 323 321 321 320 319 318 317 317 316 315 315 314 313 311 310 309 309 308 305
323 322 321 320 319 320 318 317 317 316 315 314 314 315 314 313 310 310 311 311 309 306
321 321 320 320 320 320 318 317 316 315 313 311 311 312 312 311 311 310 311 310 309 306
319 318 318 317 317 316 313 313 312 313 313 311 310 309 308 308 309 309 310 310 308 307
318 317 316 314 312 311 310 310 311 311 311 311 310 308 308 307 309 310 310 309 308 308
316 314 311 308 308 309 310 309 309 310 312 313 313 314 313 313 313 312 310 310 311 314